Hourly Weather Roundup
Issued by NWS Central Illinois

Home | Current Version | Previous Version | Text Only | Print | Product List | Glossary On
Versions: 1 2 3 4 5 6 7 8 9 10 11 12 13 14 15 16 17 18 19 20 21 22 23 24 25 26 27 28 29 30 31 32 33 34 35 36 37 38 39 40 41 42 43 44 45 46 47 48 49 50
513
NZUS43 KILX 190610
HWRILX

AREA WEATHER ROUNDUP
NATIONAL WEATHER SERVICE, LINCOLN IL
1200 AM CST SUN FEB 19 2017


CITY           SKY/WX    TMP DP  RH WIND       PRES   REMARKS
BLOOMINGTON    CLEAR     44  42  93 SW10      29.89R
6HR MIN TEMP:  44; 6HR MAX TEMP:  57;

CHAMPAIGN      FOG       49  48  97 SW14      29.90R VSB 1/4
6HR MIN TEMP:  46; 6HR MAX TEMP:  56;

DECATUR        FOG       50  49  96 SW13      29.90S VSB 1
6HR MIN TEMP:  48; 6HR MAX TEMP:  57;

EFFINGHAM      CLOUDY    52  51  98 S7        29.95R
6HR MIN TEMP:  50; 6HR MAX TEMP:  54;

FLORA          CLOUDY    52  50  92 W5        29.95R
6HR MIN TEMP:  47; 6HR MAX TEMP:  54;

GALESBURG      CLOUDY    37  32  83 CALM        N/A
6HR MIN TEMP:  36; 6HR MAX TEMP:  56;

JACKSONVILLE   CLEAR     45  41  87 S5        29.88S
6HR MIN TEMP:  45; 6HR MAX TEMP:  57;

LACON          CLEAR     37  33  86 CALM      29.86S
6HR MIN TEMP:  37; 6HR MAX TEMP:  57;

LAWRENCEVILLE  FOG       41  40  96 SW5       29.95R VSB 1/4
6HR MIN TEMP:  40; 6HR MAX TEMP:  53;

LITCHFIELD     FOG       48  48 100 S7        29.91S VSB 1/4
6HR MIN TEMP:  44; 6HR MAX TEMP:  49;

$$


CITY           SKY/WX    TMP DP  RH WIND       PRES   REMARKS
LINCOLN        CLEAR     42  42 100 CALM      29.89S FOG
6HR MIN TEMP:  42; 6HR MAX TEMP:  62;

MACOMB         CLEAR     37  33  85 CALM      29.89R
6HR MIN TEMP:  37; 6HR MAX TEMP:  58;

MATTOON        CLOUDY    51  50  96 SW12      29.91R FOG
6HR MIN TEMP:  49; 6HR MAX TEMP:  53;

MT CARMEL AP   CLOUDY    46  45  96 SW7       29.95R FOG
6HR MIN TEMP:  44; 6HR MAX TEMP:  52;

OLNEY-NOBLE AP CLOUDY    48  48 100 W6        29.95R
PARIS          CLOUDY    49  48  96 SW12      29.92R
6HR MIN TEMP:  46; 6HR MAX TEMP:  54;

PEORIA         CLEAR     42  37  82 CALM      29.88R
6HR MIN TEMP:  42; 6HR MAX TEMP:  61;

PONTIAC        CLEAR     39  37  93 CALM      29.88R
6HR MIN TEMP:  38; 6HR MAX TEMP:  59;

RANTOUL        FOG       47  47  98 SW13      29.89R VSB 1/2
6HR MIN TEMP:  47; 6HR MAX TEMP:  58;

SPRINGFIELD    CLEAR     47  44  90 S6        29.89S FOG
6HR MIN TEMP:  46; 6HR MAX TEMP:  60;

TAYLORVILLE    FOG       49  49  99 CALM      29.91S VSB 1/2
6HR MIN TEMP:  46; 6HR MAX TEMP:  55;

$$

...REGIONAL REPORTS...


CITY           SKY/WX    TMP DP  RH WIND       PRES   REMARKS
CHICAGO O`HARE CLEAR     41  34  76 CALM      29.85R
KANKAKEE       CLEAR     39  35  86 SW7       29.87R WCI  34
MOLINE         CLEAR     34  28  79 CALM      29.87R
MOUNT STERLING CLEAR     41  37  85 S3        29.86S
MOUNT VERNON   CLOUDY    50  50 100 SW8       29.95R FOG
PITTSFIELD     CLEAR     44  39  83 SW3       29.89R
QUINCY         CLEAR     50  43  77 S7        29.87R
ROCKFORD       CLEAR     37  32  82 CALM      29.89R
$$


CITY           SKY/WX    TMP DP  RH WIND       PRES   REMARKS
BURLINGTON     CLEAR     40  32  73 CALM      29.88R
CEDAR RAPIDS   CLEAR     35  34  96 NW5       29.88R WCI  31
DES MOINES     CLOUDY    43  35  73 E3        29.87R
KIRKSVILLE     CLEAR     43  35  73 NE3       29.88R
OTTUMWA        CLOUDY    38  30  73 NE5       29.87R WCI  34
ST LOUIS       CLEAR     51  47  86 SE3       29.91R
$$


CITY           SKY/WX    TMP DP  RH WIND       PRES   REMARKS
TERRE HAUTE    CLOUDY    50  46  86 SW13      29.93R
EVANSVILLE     CLOUDY    48  46  93 SW6       29.95S FOG
INDIANAPOLIS   PTCLDY    47  44  90 SW9       29.91S
LAFAYETTE      CLEAR     47  46  97 SW9       29.88R
MADISON        CLEAR     31  30  96 CALM      29.86S
MILWAUKEE      PTCLDY    49  37  63 W5        29.86R
$$






USA.gov is the U.S. government's official web portal to all federal, state and local government web resources and services.